{"data":{"norad_id":44542,"intl_designator":"2019-061A","name":"BEIDOU-3 M24 (C46)","alt_names":[],"object_type":"PAYLOAD","status":"ACTIVE","operator":null,"country":"PRC","launch_date":"2019-09-22","launch_site_code":"XICLF","launch_vehicle":null,"mission":null,"orbit_class":"UNKNOWN","rcs_meters":null,"size_class":null,"mass_kg":null,"dimensions":null,"purposes":["earth_obs","nav"],"wikipedia_slug":null,"has_3d_model":false,"image_url":null,"decayed_at":null,"tle_current":{"epoch":"2026-09-15T23:42:26.921376Z","epoch_age_seconds":404247,"freshness":"STALE","line1":"1 44542U 19061A   26258.98781159  .00000002  00000+0  00000+0 0  9997","line2":"2 44542  54.3935 179.6672 0009331  13.2260 346.8192  1.86229429 47487","mean_motion":1.86229429,"eccentricity":0.0009331,"inclination_deg":54.3935,"raan_deg":179.6672,"arg_perigee_deg":13.226,"mean_anomaly_deg":346.8192,"bstar":0,"rev_number":4748,"period_min":773.23976545082,"perigee_km":21502.169093935,"apogee_km":21554.247915916,"semimajor_km":27906.345504925,"source":"CELESTRAK","updated_at":"2026-09-20T09:00:46.712467Z"}}}